N1SU-13 Weather Reports


Display with metric or nautical units.
time (UTC)temp
F
wind
direction
speed
MPH
gust
MPH
rain 1hr
in
rain 24hr
in
rain mn
in
humidity
%
barometer
mb
20260506005055 68 0.0 0.0 0.00 0.00 0.00 60 1013.2
20260506003934 67 0.0 0.0 0.00 0.00 0.00 62 1013.3
20260506002849 66 0.0 0.0 0.00 0.00 0.00 63 1013.5
20260506001728 65 0.0 0.0 0.00 0.00 0.00 64 1013.5
20260506000655 65 0.0 0.0 0.00 0.00 0.00 66 1013.6
20260505235614 64 0.0 0.0 0.00 0.00 0.00 65 1013.9
20260505234612 64 0.0 0.0 0.00 0.00 0.00 67 1014.0
20260505233442 63 0.0 0.0 0.00 0.00 0.00 68 1014.0
20260505232517 62 0.0 0.0 0.00 0.00 0.00 70 1014.2
20260505231557 63 0.0 0.0 0.00 0.00 0.00 68 1014.2
20260505230457 63 0.0 0.0 0.00 0.00 0.00 67 1014.0
20260505225500 62 0.0 0.0 0.00 0.00 0.00 69 1014.2
20260505224442 62 0.0 0.0 0.00 0.00 0.00 69 1014.4
20260505223454 62 0.0 0.0 0.00 0.00 0.00 69 1014.4
20260505222323 61 0.0 0.0 0.00 0.00 0.00 70 1014.6
20260505221328 61 0.0 0.0 0.00 0.00 0.00 71 1014.7
20260505220258 61 0.0 0.0 0.00 0.00 0.00 71 1014.8
20260505215157 60 0.0 0.0 0.00 0.00 0.00 72 1014.9
20260505214105 59 0.0 0.0 0.00 0.00 0.00 73 1015.0
20260505212936 59 0.0 0.0 0.00 0.00 0.00 74 1015.0
20260505211820 59 0.0 0.0 0.00 0.00 0.00 75 1015.0
20260505210741 59 0.0 0.0 0.00 0.00 0.00 74 1015.0
20260505205724 58 0.0 0.0 0.00 0.00 0.00 75 1015.0
20260505204609 58 0.0 0.0 0.00 0.00 0.00 76 1015.2
20260505203526 58 0.0 0.0 0.00 0.00 0.00 77 1015.2
20260505202448 57 0.0 0.0 0.00 0.00 0.00 77 1015.3
20260505201459 57 0.0 0.0 0.00 0.00 0.00 77 1015.2
20260505200431 57 0.0 0.0 0.00 0.00 0.00 77 1015.2
20260505195332 57 0.0 0.0 0.00 0.00 0.00 78 1015.3
20260505194211 57 0.0 0.0 0.00 0.00 0.00 78 1015.3
20260505193113 57 0.0 0.0 0.00 0.00 0.00 79 1015.2
20260505192115 56 0.0 0.0 0.00 0.00 0.00 79 1015.1
20260505191012 56 0.0 0.0 0.00 0.00 0.00 79 1015.2
20260505185953 56 0.0 0.0 0.00 0.00 0.00 80 1015.2
20260505184920 56 0.0 0.0 0.00 0.00 0.00 80 1015.1
20260505183834 56 0.0 0.0 0.00 0.00 0.00 80 1015.1
20260505182714 55 0.0 0.0 0.00 0.00 0.00 81 1015.2
20260505181740 55 0.0 0.0 0.00 0.00 0.00 82 1015.1
20260505180640 54 0.0 0.0 0.00 0.00 0.00 82 1015.1
20260505175653 54 0.0 0.0 0.00 0.00 0.00 83 1015.2
20260505174728 54 0.0 0.0 0.00 0.00 0.00 83 1015.2
20260505173554 54 0.0 0.0 0.00 0.00 0.00 84 1015.1
20260505172628 54 0.0 0.0 0.00 0.00 0.00 84 1015.0
20260505171521 54 0.0 0.0 0.00 0.00 0.00 84 1015.0
20260505170604 54 0.0 0.0 0.00 0.00 0.00 84 1014.9
20260505165636 54 0.0 0.0 0.00 0.00 0.00 84 1015.0
20260505164632 54 0.0 0.0 0.00 0.00 0.00 84 1014.9
20260505163637 54 0.0 0.0 0.00 0.00 0.00 85 1014.8
20260505162510 53 0.0 0.0 0.00 0.00 0.00 84 1014.8
20260505161433 53 0.0 0.0 0.00 0.00 0.00 84 1014.8
20260505160404 53 0.0 0.0 0.00 0.00 0.00 84 1014.7
20260505153133 53 0.0 0.0 0.00 0.00 0.00 83 1014.6
20260505152205 53 0.0 0.0 0.00 0.00 0.00 84 1014.5
20260505151239 53 0.0 0.0 0.00 0.00 0.00 84 1014.5
20260505150119 53 0.0 0.0 0.00 0.00 0.00 85 1014.4
20260505124755 51 0.0 0.0 0.00 0.00 0.00 88 1013.1
20260505123828 51 0.0 0.0 0.00 0.00 0.00 88 1013.1
20260505122741 51 0.0 0.0 0.00 0.00 0.00 88 1013.0
20260505121729 51 0.0 0.0 0.00 0.00 0.00 89 1013.0
20260505120553 52 0.0 0.0 0.00 0.00 0.00 88 1012.8
20260505115529 52 0.0 0.0 0.00 0.00 0.00 88 1012.6
20260505114511 52 0.0 0.0 0.00 0.00 0.00 87 1012.5
20260505113419 52 0.0 0.0 0.00 0.00 0.00 87 1012.7
20260505112342 52 0.0 0.0 0.00 0.00 0.00 86 1012.5
20260505111218 52 0.0 0.0 0.00 0.00 0.00 86 1012.4
20260505110114 52 0.0 0.0 0.00 0.00 0.00 86 1012.4
20260505101923 53 0.0 0.0 0.00 0.00 0.00 84 1012.1
20260505100814 54 0.0 0.0 0.00 0.00 0.00 84 1011.9
20260505095801 54 0.0 0.0 0.00 0.00 0.00 84 1011.9
20260505094701 54 0.0 0.0 0.00 0.00 0.00 83 1011.8
20260505093652 54 0.0 0.0 0.00 0.00 0.00 83 1011.7
20260505092606 55 0.0 0.0 0.00 0.00 0.00 82 1011.6
20260505091511 55 0.0 0.0 0.00 0.00 0.00 82 1011.5
20260505091305 55 0.0 0.0 0.00 0.00 0.00 81 1011.4
20260505090411 55 0.0 0.0 0.00 0.00 0.00 81 1011.3
20260505085413 56 0.0 0.0 0.00 0.00 0.00 81 1011.3
20260505084350 56 0.0 0.0 0.00 0.00 0.00 80 1011.1
20260505083215 56 0.0 0.0 0.00 0.00 0.00 80 1011.2
20260505082116 56 0.0 0.0 0.00 0.00 0.00 80 1011.1
20260505080949 57 0.0 0.0 0.00 0.00 0.00 79 1011.0
20260505075941 57 0.0 0.0 0.00 0.00 0.00 78 1010.9
20260505075004 57 0.0 0.0 0.00 0.00 0.00 77 1010.8
20260505073901 57 0.0 0.0 0.00 0.00 0.00 78 1010.7
20260505072838 58 0.0 0.0 0.00 0.00 0.00 77 1010.6
20260505071718 59 0.0 0.0 0.00 0.00 0.00 76 1010.4
20260505070744 59 0.0 0.0 0.00 0.00 0.00 75 1010.3
20260505065659 59 0.0 0.0 0.00 0.00 0.00 74 1010.3
20260505064603 60 0.0 0.0 0.00 0.00 0.00 73 1010.1
20260505063511 61 0.0 0.0 0.00 0.00 0.00 71 1010.0
20260505062344 61 0.0 0.0 0.00 0.00 0.00 70 1009.9
20260505061349 62 0.0 0.0 0.00 0.00 0.00 70 1009.7
20260505060239 62 0.0 0.0 0.00 0.00 0.00 68 1009.7
20260505055201 63 0.0 0.0 0.00 0.00 0.00 67 1009.8
20260505054237 63 0.0 0.0 0.00 0.00 0.00 67 1009.5
20260505053234 64 0.0 0.0 0.00 0.00 0.00 66 1009.4
20260505052215 64 0.0 0.0 0.00 0.00 0.00 65 1009.4
20260505051043 65 0.0 0.0 0.00 0.00 0.00 64 1009.4
20260505041658 68 0.0 0.0 0.00 0.00 0.00 59 1008.4
20260505040710 69 0.0 0.0 0.00 0.00 0.00 58 1008.2
20260505035624 70 0.0 0.0 0.00 0.00 0.00 56 1008.0
20260505034503 71 0.0 0.0 0.00 0.00 0.00 55 1007.8
20260505033537 73 0.0 0.0 0.00 0.00 0.00 53 1007.6
20260505032534 74 0.0 0.0 0.00 0.00 0.00 50 1007.4
20260505031431 76 0.0 0.0 0.00 0.00 0.00 47 1007.2
20260505030328 78 0.0 0.0 0.00 0.00 0.00 43 1006.9
20260505025403 82 0.0 0.0 0.00 0.00 0.00 38 1006.7
20260505024327 83 0.0 0.0 0.00 0.00 0.00 36 1006.6
20260505023233 85 0.0 0.0 0.00 0.00 0.00 33 1006.5
20260505022238 85 0.0 0.0 0.00 0.00 0.00 31 1006.5
20260505021219 85 0.0 0.0 0.00 0.00 0.00 31 1006.5
20260505020258 85 0.0 0.0 0.00 0.00 0.00 31 1006.6
20260505015143 84 0.0 0.0 0.00 0.00 0.00 32 1006.7
20260505014154 83 0.0 0.0 0.00 0.00 0.00 31 1006.7
20260505013046 82 0.0 0.0 0.00 0.00 0.00 31 1006.7
20260505012032 82 0.0 0.0 0.00 0.00 0.00 33 1006.8
20260505010907 80 0.0 0.0 0.00 0.00 0.00 34 1007.1
20260505005739 80 0.0 0.0 0.00 0.00 0.00 33 1007.1